Weather History for Himsel Army Airfld, Nineveh,, IN

Change the Weather History Date:

Wednesday, March 5, 2014

  Actual Average (KGEZ) Record (KGEZ)
Temperature  
Mean Temperature 22 °F 37 °F  
Max Temperature 33 °F 47 °F 70 °F (2004)
Min Temperature 12 °F 28 °F 19 °F (2014)
Degree Days  
Heating Degree Days 42 28  
Month to date heating degree days 142  
Since 1 July heating degree days 4305  
Cooling Degree Days 0 0  
Month to date cooling degree days 0  
Year to date cooling degree days 0  
Moisture  
Dew Point 17 °F    
Average Humidity 73    
Maximum Humidity 93    
Minimum Humidity 55    
Precipitation  
Precipitation 0.00 in 0.09 in 1.61 in (2011)
Month to date precipitation 0.41  
Year to date precipitation 5.16  
Sea Level Pressure  
Sea Level Pressure 30.28 in    
Wind  
Wind Speed 4 mph (NE)    
Max Wind Speed 15 mph    
Max Gust Speed 21 mph    
Visibility 10 miles    
Events      
T = Trace of Precipitation, MM = Missing Value Source: NWS Daily Summary

Daily Weather History Graph

Daily Weather History Graph

Search for Another Location

Airport:

Trip Planner

Search our weather history database for the weather conditions in past years. The results will help you decide how hot, cold, wet, or windy it might be!

Date:

Astronomy

Mar. 05, 2014 Rise Set
Actual Time 7:10 AM EST 6:40 PM EST
Civil Twilight 6:44 AM EST 7:07 PM EST
Nautical Twilight 6:13 AM EST 7:38 PM EST
Astronomical Twilight 5:42 AM EST 8:09 PM EST
Moon 9:37 AM EST (3/5) 11:46 PM EST (3/5)
Length of Visible Light 12h 23m
Length of Day
11h 29m
Waxing Crescent, 23% of the Moon is Illuminated
Mar 5
Waxing Crescent
Mar 8
First Quarter
Mar 16
Full
Mar 23
Last Quarter
Mar 30
New

Hourly Weather History & Observations

Time (EST) Temp. Windchill Dew Point Humidity Pressure Visibility Wind Dir Wind Speed Gust Speed Precip Events Conditions
12:15 AM 17.6 °F - 14.0 °F 86% 30.21 in 10.0 mi Calm Calm - N/A   Unknown
12:35 AM 17.6 °F - 14.0 °F 86% 30.20 in 10.0 mi Calm Calm - N/A   Unknown
12:55 AM 17.6 °F - 12.2 °F 79% 30.19 in 10.0 mi Calm Calm - N/A   Unknown
1:35 AM 17.6 °F - 12.2 °F 79% 30.19 in 10.0 mi Calm Calm - N/A   Unknown
1:55 AM 15.8 °F - 12.2 °F 86% 30.19 in 10.0 mi Calm Calm - N/A   Unknown
2:15 AM 14.0 °F - 12.2 °F 93% 30.20 in 10.0 mi Calm Calm - N/A   Unknown
2:35 AM 14.0 °F - 12.2 °F 93% 30.20 in 10.0 mi Calm Calm - N/A   Unknown
2:55 AM 14.0 °F - 12.2 °F 93% 30.21 in 10.0 mi Calm Calm - N/A   Unknown
3:15 AM 14.0 °F - 12.2 °F 93% 30.21 in 10.0 mi Calm Calm - N/A   Unknown
3:35 AM 14.0 °F - 12.2 °F 93% 30.20 in 10.0 mi Calm Calm - N/A   Unknown
3:55 AM 14.0 °F - 12.2 °F 93% 30.21 in 10.0 mi Calm Calm - N/A   Unknown
4:15 AM 14.0 °F 5.1 °F 12.2 °F 93% 30.21 in 10.0 mi North 5.8 mph - N/A   Unknown
4:35 AM 14.0 °F 5.1 °F 10.4 °F 86% 30.21 in 10.0 mi North 5.8 mph - N/A   Unknown
4:55 AM 15.8 °F 8.6 °F 12.2 °F 86% 30.22 in 10.0 mi NNW 4.6 mph - N/A   Unknown
5:15 AM 15.8 °F - 12.2 °F 86% 30.23 in 10.0 mi Calm Calm - N/A   Unknown
5:35 AM 12.2 °F - 10.4 °F 92% 30.23 in 10.0 mi Calm Calm - N/A   Unknown
5:55 AM 14.0 °F - 10.4 °F 86% 30.24 in 10.0 mi Calm Calm - N/A   Unknown
6:15 AM 12.2 °F - 10.4 °F 92% 30.25 in 10.0 mi Calm Calm - N/A   Unknown
6:35 AM 12.2 °F - 10.4 °F 92% 30.25 in 10.0 mi Calm Calm - N/A   Unknown
6:55 AM 12.2 °F - 10.4 °F 92% 30.27 in 10.0 mi Calm Calm - N/A   Unknown
7:15 AM 12.2 °F 6.1 °F 10.4 °F 92% 30.27 in 10.0 mi North 3.5 mph - N/A   Unknown
7:35 AM 14.0 °F 8.2 °F 10.4 °F 86% 30.28 in 10.0 mi NNW 3.5 mph - N/A   Unknown
7:55 AM 14.0 °F - 12.2 °F 93% 30.29 in 10.0 mi Calm Calm - N/A   Unknown
8:15 AM 17.6 °F - 12.2 °F 79% 30.29 in 10.0 mi Calm Calm - N/A   Unknown
8:35 AM 19.4 °F - 15.8 °F 86% 30.30 in 10.0 mi Calm Calm - N/A   Unknown
9:00 AM 23.0 °F - 15.8 °F 74% 30.29 in 10.0 mi Calm Calm - N/A   Unknown
9:15 AM 24.8 °F 16.9 °F 17.6 °F 74% 30.29 in 10.0 mi East 6.9 mph - N/A   Unknown
9:35 AM 26.6 °F 16.8 °F 14.0 °F 59% 30.28 in 10.0 mi East 10.4 mph - N/A   Unknown
9:55 AM 26.6 °F 18.2 °F 15.8 °F 64% 30.30 in 10.0 mi East 8.1 mph - N/A   Unknown
10:20 AM 30.2 °F 25.4 °F 17.6 °F 60% 30.31 in 10.0 mi ENE 4.6 mph - N/A   Unknown
10:35 AM 32.0 °F - 17.6 °F 55% 30.31 in 10.0 mi Calm Calm - N/A   Unknown
10:55 AM 30.2 °F 24.3 °F 17.6 °F 60% 30.31 in 10.0 mi ENE 5.8 mph - N/A   Unknown
11:15 AM 32.0 °F 24.8 °F 17.6 °F 55% 30.31 in 10.0 mi ENE 8.1 mph - N/A   Unknown
11:35 AM 32.0 °F 26.4 °F 17.6 °F 55% 30.31 in 10.0 mi NE 5.8 mph - N/A   Unknown
11:55 AM 32.0 °F 24.2 °F 17.6 °F 55% 30.31 in 10.0 mi ENE 9.2 mph - N/A   Unknown
12:15 PM 32.0 °F 24.2 °F 19.4 °F 60% 30.31 in 10.0 mi East 9.2 mph - N/A   Unknown
12:35 PM 32.0 °F 23.6 °F 19.4 °F 60% 30.31 in 10.0 mi NE 10.4 mph - N/A   Unknown
12:55 PM 32.0 °F 23.6 °F 19.4 °F 60% 30.30 in 10.0 mi NE 10.4 mph - N/A   Unknown
1:15 PM 32.0 °F 24.2 °F 19.4 °F 60% 30.29 in 10.0 mi NE 9.2 mph - N/A   Unknown
1:35 PM 32.0 °F 24.8 °F 19.4 °F 60% 30.28 in 10.0 mi NE 8.1 mph - N/A   Unknown
1:55 PM 33.8 °F 25.3 °F 19.4 °F 56% 30.28 in 10.0 mi ENE 11.5 mph - N/A   Unknown
2:15 PM 33.8 °F 26.4 °F 19.4 °F 56% 30.28 in 10.0 mi NE 9.2 mph - N/A   Unknown
2:35 PM 33.8 °F 26.4 °F 19.4 °F 56% 30.29 in 10.0 mi ENE 9.2 mph - N/A   Unknown
2:55 PM 33.8 °F 27.0 °F 19.4 °F 56% 30.28 in 10.0 mi NE 8.1 mph - N/A   Unknown
3:15 PM 33.8 °F 26.4 °F 19.4 °F 56% 30.28 in 10.0 mi NE 9.2 mph - N/A   Unknown
3:40 PM 32.0 °F 23.6 °F 19.4 °F 60% 30.28 in 10.0 mi ENE 10.4 mph - N/A   Unknown
3:55 PM 32.0 °F 24.2 °F 19.4 °F 60% 30.28 in 10.0 mi NE 9.2 mph - N/A   Unknown
4:15 PM 32.0 °F 24.2 °F 19.4 °F 60% 30.28 in 10.0 mi NE 9.2 mph - N/A   Unknown
4:35 PM 32.0 °F 23.6 °F 19.4 °F 60% 30.29 in 10.0 mi NE 10.4 mph - N/A   Unknown
4:55 PM 32.0 °F 23.0 °F 17.6 °F 55% 30.29 in 10.0 mi NE 11.5 mph - N/A   Unknown
5:15 PM 32.0 °F 24.2 °F 17.6 °F 55% 30.29 in 10.0 mi ENE 9.2 mph - N/A   Unknown
5:35 PM 32.0 °F 24.8 °F 17.6 °F 55% 30.30 in 10.0 mi NE 8.1 mph 16.1 mph N/A   Unknown
5:55 PM 32.0 °F 24.2 °F 19.4 °F 60% 30.29 in 10.0 mi NE 9.2 mph - N/A   Unknown
6:15 PM 32.0 °F 25.6 °F 19.4 °F 60% 30.30 in 10.0 mi NE 6.9 mph - N/A   Unknown
6:35 PM 32.0 °F 22.5 °F 19.4 °F 60% 30.30 in 10.0 mi NE 12.7 mph 19.6 mph N/A   Unknown
6:55 PM 30.2 °F 20.8 °F 21.2 °F 69% 30.31 in 10.0 mi NE 11.5 mph 18.4 mph N/A   Unknown
7:15 PM 30.2 °F 21.9 °F 19.4 °F 64% 30.32 in 10.0 mi NE 9.2 mph - N/A   Unknown
7:35 PM 30.2 °F 21.3 °F 19.4 °F 64% 30.33 in 10.0 mi NE 10.4 mph - N/A   Unknown
7:55 PM 30.2 °F 19.3 °F 21.2 °F 69% 30.33 in 10.0 mi NE 15.0 mph 18.4 mph N/A   Unknown
8:15 PM 28.4 °F 19.7 °F 21.2 °F 74% 30.33 in 10.0 mi NE 9.2 mph 19.6 mph N/A   Unknown
8:35 PM 28.4 °F 19.1 °F 21.2 °F 74% 30.33 in 10.0 mi NE 10.4 mph - N/A   Unknown
8:55 PM 28.4 °F 21.2 °F 21.2 °F 74% 30.32 in 10.0 mi NE 6.9 mph - N/A   Unknown
9:15 PM 28.4 °F 17.5 °F 21.2 °F 74% 30.32 in 10.0 mi NE 13.8 mph 20.7 mph N/A   Unknown
9:35 PM 26.6 °F 17.5 °F 21.2 °F 80% 30.33 in 10.0 mi NE 9.2 mph - N/A   Unknown
9:55 PM 26.6 °F 19.1 °F 21.2 °F 80% 30.33 in 10.0 mi NE 6.9 mph - N/A   Unknown
10:15 PM 26.6 °F 18.2 °F 21.2 °F 80% 30.33 in 10.0 mi NE 8.1 mph - N/A   Unknown
10:35 PM 26.6 °F 20.0 °F 21.2 °F 80% 30.34 in 10.0 mi NE 5.8 mph - N/A   Unknown
10:55 PM 26.6 °F 19.1 °F 21.2 °F 80% 30.35 in 10.0 mi NE 6.9 mph - N/A   Unknown
11:15 PM 26.6 °F 18.2 °F 19.4 °F 74% 30.35 in 10.0 mi ENE 8.1 mph - N/A   Unknown
11:35 PM 26.6 °F 18.2 °F 19.4 °F 74% 30.34 in 10.0 mi NE 8.1 mph - N/A   Unknown
11:55 PM 24.8 °F 17.9 °F 19.4 °F 80% 30.35 in 10.0 mi NE 5.8 mph - N/A   Unknown